Date String (YYYY-MM-DD hh:mm:ss) UTC,Instrument flags,absolute air pressure of the measurement (hPa),sample flow rate (lpm),inlet stack bypass flow (lpm),air temperature of the measurement (°C),ambient temperature measured by the external sensor (°C),aerosol sample conditioner tube jacket temperature (°C),OPC LED temperature (°C),internal box temperature (°C),relative humidity of the measurement (%),span deviation,mass concentration of particles derived from Lorenz-Mie calculation of OPC scattering (μg/m³),mass concentration of particles derived from Lorenz-Mie calculation of OPC scattering (μg/m³),mass concentration of particles derived from Lorenz-Mie calculation of OPC scattering (μg/m³)
DateTimeUTC,F1_M11,P_M11,Q1_M11,Q2_M11,T1_M11,T2_M11,T3_M11,T4_M11,T5_M11,U1_M11,ZSPAN_M11,X2_M11,X0_M11,X1_M11
2023-10-17 05:00:00,SystemResetWarning,0833.7,4.99,000.00,028.9,027.5,000.0,037.3,030.5,14.0,0000.0,0003.65,0009.49,0002.96
2023-10-17 05:01:00,SystemResetWarning,0833.7,4.99,000.00,028.9,027.5,000.0,037.3,030.5,14.0,0000.0,0003.61,0009.67,0002.96
2023-10-17 05:02:00,SystemResetWarning,0833.7,5.00,000.00,028.9,027.5,000.0,037.4,030.5,14.0,0000.0,0003.63,0009.61,0002.95
2023-10-17 05:03:00,SystemResetWarning,0833.6,4.99,000.00,028.9,027.5,000.0,037.4,030.5,14.0,0000.0,0003.68,0009.57,0002.94
2023-10-17 05:04:00,SystemResetWarning,0833.6,5.00,000.00,028.9,027.5,000.0,037.4,030.5,14.0,0000.0,0003.71,0009.86,0002.93
2023-10-17 05:05:00,SystemResetWarning,0833.7,5.01,000.00,028.9,027.5,000.0,037.4,030.5,14.0,0000.0,0003.73,0010.52,0002.94
2023-10-17 05:06:00,SystemResetWarning,0833.7,5.01,000.00,028.9,027.5,000.0,037.4,030.5,13.9,0000.0,0003.70,0011.08,0002.92
2023-10-17 05:07:00,SystemResetWarning,0833.7,5.00,000.00,028.9,027.5,000.0,037.4,030.5,14.0,0000.0,0003.72,0011.28,0002.91
2023-10-17 05:08:00,SystemResetWarning,0833.6,5.00,000.00,028.9,027.5,000.0,037.4,030.5,13.9,0000.0,0003.76,0012.08,0002.91
2023-10-17 05:09:00,SystemResetWarning,0833.6,5.00,000.00,028.9,027.5,000.0,037.4,030.6,13.9,0000.0,0003.78,0012.58,0002.90
2023-10-17 05:10:00,SystemResetWarning,0833.6,5.00,000.00,028.9,027.5,000.0,037.4,030.6,13.9,0000.0,0003.79,0012.39,0002.90
2023-10-17 05:11:00,SystemResetWarning,0833.6,5.00,000.00,028.9,027.5,000.0,037.4,030.5,13.9,0000.0,0003.81,0012.29,0002.91
2023-10-17 05:12:00,SystemResetWarning,0833.6,4.99,000.00,028.9,027.4,000.0,037.4,030.5,13.9,0000.0,0003.82,0012.28,0002.91
2023-10-17 05:13:00,SystemResetWarning,0833.5,5.00,000.00,028.9,027.4,000.0,037.4,030.6,13.9,0000.0,0003.80,0012.82,0002.91
2023-10-17 05:14:00,SystemResetWarning,0833.5,5.00,000.00,028.9,027.4,000.0,037.4,030.5,13.9,0000.0,0003.80,0012.86,0002.93
2023-10-17 05:15:00,SystemResetWarning,0833.5,5.00,000.00,028.9,027.4,000.0,037.4,030.5,13.9,0000.0,0003.79,0012.97,0002.95
2023-10-17 05:16:00,SystemResetWarning,0833.5,5.00,000.00,028.9,027.4,000.0,037.4,030.5,13.9,0000.0,0003.75,0012.56,0002.95
2023-10-17 05:17:00,SystemResetWarning,0833.5,5.00,000.00,028.9,027.4,000.0,037.4,030.6,13.9,0000.0,0003.78,0011.80,0002.95
2023-10-17 05:18:00,SystemResetWarning,0833.4,4.99,000.00,028.9,027.5,000.0,037.4,030.6,13.9,0000.0,0003.75,0011.65,0002.93
2023-10-17 05:19:00,SystemResetWarning,0833.4,5.00,000.00,028.9,027.5,000.0,037.4,030.5,13.9,0000.0,0003.72,0010.93,0002.93
2023-10-17 05:20:00,SystemResetWarning,0833.4,5.02,000.00,028.9,027.5,000.0,037.4,030.5,13.9,0000.0,0003.69,0010.11,0002.93
2023-10-17 05:21:00,SystemResetWarning,0833.4,4.98,000.00,028.9,027.5,000.0,037.4,030.5,13.9,0000.0,0003.65,0010.13,0002.93
2023-10-17 05:22:00,SystemResetWarning,0833.4,4.98,000.00,028.9,027.5,000.0,037.4,030.5,13.9,0000.0,0003.68,0010.23,0002.92
2023-10-17 05:23:00,SystemResetWarning,0833.4,5.00,000.00,028.9,027.5,000.0,037.4,030.5,13.9,0000.0,0003.69,0009.47,0002.92
2023-10-17 05:24:00,SystemResetWarning,0833.4,5.00,000.00,028.9,027.5,000.0,037.4,030.5,13.9,0000.0,0003.68,0009.00,0002.91
2023-10-17 05:25:00,SystemResetWarning,0833.4,5.00,000.00,028.9,027.5,000.0,037.4,030.6,13.9,0000.0,0003.67,0009.05,0002.92
2023-10-17 05:26:00,SystemResetWarning,0833.4,5.00,000.00,028.9,027.5,000.0,037.4,030.6,13.9,0000.0,0003.66,0009.25,0002.91
2023-10-17 05:27:00,SystemResetWarning,0833.4,5.01,000.00,028.9,027.5,000.0,037.4,030.5,13.9,0000.0,0003.68,0008.89,0002.90
2023-10-17 05:28:00,SystemResetWarning,0833.4,5.00,000.00,028.9,027.5,000.0,037.4,030.5,13.9,0000.0,0003.66,0009.02,0002.90
2023-10-17 05:29:00,SystemResetWarning,0833.4,4.99,000.00,028.9,027.5,000.0,037.4,030.5,13.9,0000.0,0003.65,0009.38,0002.90
2023-10-17 05:30:00,SystemResetWarning,0833.4,4.99,000.00,028.9,027.4,000.0,037.4,030.5,13.9,0000.0,0003.64,0010.19,0002.91
2023-10-17 05:31:00,SystemResetWarning,0833.4,5.00,000.00,028.9,027.4,000.0,037.4,030.5,13.9,0000.0,0003.63,0010.48,0002.90
2023-10-17 05:32:00,SystemResetWarning,0833.4,5.01,000.00,028.9,027.4,000.0,037.4,030.6,13.9,0000.0,0003.64,0010.80,0002.89
2023-10-17 05:33:00,SystemResetWarning,0833.3,5.02,000.00,028.9,027.4,000.0,037.4,030.5,13.9,0000.0,0003.60,0010.78,0002.89
2023-10-17 05:34:00,SystemResetWarning,0833.3,5.00,000.00,028.9,027.4,000.0,037.4,030.5,13.9,0000.0,0003.56,0011.05,0002.89
2023-10-17 05:35:00,SystemResetWarning,0833.2,4.99,000.00,028.9,027.4,000.0,037.4,030.5,13.9,0000.0,0003.56,0010.92,0002.89
2023-10-17 05:36:00,SystemResetWarning,0833.3,4.99,000.00,028.9,027.4,000.0,037.4,030.5,13.9,0000.0,0003.56,0010.54,0002.89
2023-10-17 05:37:00,SystemResetWarning,0833.3,5.00,000.00,028.9,027.4,000.0,037.4,030.5,13.9,0000.0,0003.55,0010.36,0002.88
2023-10-17 05:38:00,SystemResetWarning,0833.2,5.01,000.00,028.9,027.4,000.0,037.4,030.5,13.9,0000.0,0003.54,0010.22,0002.89
2023-10-17 05:39:00,SystemResetWarning,0833.2,5.01,000.00,028.9,027.4,000.0,037.4,030.5,13.9,0000.0,0003.58,0010.10,0002.87
2023-10-17 05:40:00,SystemResetWarning,0833.2,5.00,000.00,028.9,027.4,000.0,037.4,030.5,13.9,0000.0,0003.60,0010.01,0002.87
2023-10-17 05:41:00,SystemResetWarning,0833.2,4.99,000.00,028.9,027.4,000.0,037.4,030.5,13.9,0000.0,0003.60,0009.62,0002.86
2023-10-17 05:42:00,SystemResetWarning,0833.2,5.00,000.00,028.9,027.4,000.0,037.4,030.5,13.9,0000.0,0003.61,0009.29,0002.86
2023-10-17 05:43:00,SystemResetWarning,0833.2,4.99,000.00,028.9,027.4,000.0,037.4,030.5,13.9,0000.0,0003.63,0008.99,0002.89
2023-10-17 05:44:00,SystemResetWarning,0833.2,4.99,000.00,028.9,027.4,000.0,037.4,030.5,13.9,0000.0,0003.63,0009.16,0002.90
2023-10-17 05:45:00,SystemResetWarning,0833.2,5.00,000.00,028.9,027.4,000.0,037.4,030.5,13.9,0000.0,0003.62,0009.32,0002.90
2023-10-17 05:46:00,SystemResetWarning,0833.2,5.00,000.00,028.9,027.4,000.0,037.4,030.5,13.9,0000.0,0003.59,0009.26,0002.90
2023-10-17 05:47:00,SystemResetWarning,0833.2,5.01,000.00,028.9,027.4,000.0,037.4,030.5,13.9,0000.0,0003.56,0009.29,0002.90
2023-10-17 05:48:00,SystemResetWarning,0833.2,5.00,000.00,028.9,027.4,000.0,037.4,030.5,13.9,0000.0,0003.53,0008.85,0002.89
2023-10-17 05:49:00,SystemResetWarning,0833.2,5.00,000.00,028.9,027.4,000.0,037.4,030.5,13.9,0000.0,0003.50,0009.06,0002.89
2023-10-17 05:50:00,SystemResetWarning,0833.2,5.01,000.00,028.9,027.4,000.0,037.4,030.5,13.9,0000.0,0003.48,0009.32,0002.88
2023-10-17 05:51:00,SystemResetWarning,0833.1,5.00,000.00,028.9,027.4,000.0,037.4,030.5,13.9,0000.0,0003.48,0009.49,0002.90
2023-10-17 05:52:00,SystemResetWarning,0833.2,5.00,000.00,028.9,027.4,000.0,037.4,030.5,13.9,0000.0,0003.53,0009.65,0002.93
2023-10-17 05:53:00,SystemResetWarning,0833.2,4.99,000.00,028.9,027.4,000.0,037.4,030.5,13.9,0000.0,0003.55,0010.30,0002.92
2023-10-17 05:54:00,SystemResetWarning,0833.1,4.99,000.00,028.9,027.4,000.0,037.4,030.5,13.9,0000.0,0003.53,0010.21,0002.90
2023-10-17 05:55:00,SystemResetWarning,0833.2,5.00,000.00,028.9,027.4,000.0,037.4,030.5,13.9,0000.0,0003.55,0010.63,0002.88
2023-10-17 05:56:00,SystemResetWarning,0833.2,5.00,000.00,028.9,027.4,000.0,037.4,030.5,13.9,0000.0,0003.53,0010.50,0002.87
2023-10-17 05:57:00,SystemResetWarning,0833.2,5.00,000.00,028.9,027.4,000.0,037.4,030.5,13.9,0000.0,0003.54,0010.63,0002.87
2023-10-17 05:58:00,SystemResetWarning,0833.1,5.01,000.00,028.9,027.4,000.0,037.4,030.5,13.9,0000.0,0003.59,0011.35,0002.87
2023-10-17 05:59:00,SystemResetWarning,0833.0,5.00,000.00,028.9,027.4,000.0,037.4,030.5,13.8,0000.0,0003.58,0011.48,0002.86
